Flag for Japan Weather past 2 weeks in Utsunomiya, Japan

Now
62 °F

Overcast.


Feels Like: 62 °F
Forecast: 49 / 73 °F
Wind: 3 mph from Southwest

Location: Mito

Current Time: Apr 29, 2015 at 4:04:01 AM

Latest Report: Apr 29, 2015 at 3:00 AM


Visibility: 9 mi

Pressure: 30.06 "Hg

Humidity: 85%

Dew point: 57 °F

Location of UtsunomiyaLocation

Historic Weather in Utsunomiya — Graph

°F

Utsunomiya temperature yesterday

Maximum temperature yesterday: 82 °F (at 11:00 AM)
Minimum temperature yesterday: 53 °F (at 5:00 AM)
Average temperature yesterday: 69 °F

Past Weeks' High & Low Weather Summary

 TemperatureHumidityPressure
High82 °F (Apr 28, 11:00 AM)98% (Apr 14, 10:00 PM)30.24 "Hg (Apr 14, 10:00 PM)
Low39 °F (Apr 18, 4:00 AM)25% (Apr 18, 2:00 PM)29.44 "Hg (Apr 15, 4:00 PM)
Average59 °F73%29.96 "Hg
* Reported Apr 14 2:00 AM — Apr 29 2:00 AM, Utsunomiya, Weather by CustomWeather, © 2015

Note: Actual official high and low records may vary slightly from our data, if they occured in-between our weather recording intervals... More about our weather records

Advertising

Utsunomiya weather history for previous 24 hours

 ConditionsComfort  
Time TempWeatherWind HumidityBarometerVisibility
2:00 AM
Wed, Apr 29
63 °FMild.5 mph83%30.05 "HgN/A
1:00 AM64 °FMild.5 mph79%30.05 "HgN/A
12:00 AM65 °FMild.8 mph73%30.06 "HgN/A
11:00 PM
Tue, Apr 28
66 °FMild.6 mph71%30.07 "HgN/A
10:00 PM68 °FMild.5 mph68%30.06 "HgN/A
9:00 PM70 °FOvercast.5 mph62%30.07 "Hg9 mi
8:00 PM71 °FMild.5 mph58%30.06 "HgN/A
7:00 PM72 °FMild.3 mph62%30.03 "HgN/A
6:00 PM71 °FMild.5 mph65%30.01 "HgN/A
5:00 PM76 °FMild.6 mph55%30.00 "HgN/A
4:00 PM79 °FWarm.7 mph43%30.00 "HgN/A
3:00 PM80 °FPartly sunny.7 mph45%30.00 "Hg12 mi
2:00 PM80 °FPleasantly warm.9 mph37%30.01 "HgN/A
1:00 PM80 °FPleasantly warm.12 mph37%30.02 "HgN/A
12:00 PM81 °FWarm.8 mph42%30.03 "HgN/A
11:00 AM82 °FPleasantly warm.3 mph28%30.04 "HgN/A
10:00 AM78 °FWarm.3 mph41%30.06 "HgN/A
9:00 AM73 °FPassing clouds.3 mph55%30.06 "Hg6 mi
8:00 AM67 °FMild.5 mph68%30.07 "HgN/A
7:00 AM59 °FCool.2 mph81%30.07 "HgN/A
5:00 AM53 °FCool.1 mph92%30.05 "HgN/A
4:00 AM54 °FCool.1 mph87%30.05 "HgN/A
Weather by CustomWeather, © 2015

See weather overviewHow to use our weather pages